Location: Pine Mountain Observatory
(43.7910°N, 120.9377°W)
Time: 07:43:45
(UTC-07:00)

Explorer 11/Cluster Stage 4 - Pass Details

Date: 27 May 2019
Orbit: 467 x 1260 km, 28.8° (Epoch: 24 June)

Event Time Altitude Azimuth Distance (km) Brightness Sun altitude
Rises 04:25:38 0° 240° (WSW) 3,452 - -9.8°
Reaches altitude 10° 04:29:33 10° 218° (SW) 2,320 - -9.3°
Exits shadow 04:29:52 11° 215° (SW) 2,246 8.3 -9.2°
Maximum altitude 04:32:26 15° 186° (S) 1,884 8.1 -8.9°
Drops below altitude 10° 04:35:02 10° 153° (SSE) 2,049 8.6 -8.5°
Sets 04:38:07 0° 128° (SE) 2,808 9.6 -8.1°
